Weather History for Beatrice, NE

Change the Weather History Date:

Sunday, November 18, 2012

  Actual Average Record
Temperature  
Mean Temperature 53 °F -  
Max Temperature 64 °F 53 °F 72 °F (1953)
Min Temperature 42 °F 33 °F 7 °F (1955)
Degree Days  
Heating Degree Days 12    
Growing Degree Days 3 (Base 50)    
Moisture  
Dew Point 28 °F    
Average Humidity 39    
Maximum Humidity 53    
Minimum Humidity 28    
Precipitation  
Precipitation 0.00 in - - ()
Sea Level Pressure  
Sea Level Pressure 30.08 in    
Wind  
Wind Speed 12 mph (SSE)    
Max Wind Speed 18 mph    
Max Gust Speed 25 mph    
Visibility 10 miles    
Events      
Averages and records for this station are not official NWS values.
T = Trace of Precipitation, MM = Missing Value Source: NWS Daily Summary

Daily Weather History Graph

Daily Weather History Graph

Search for Another Location

Airport:

Trip Planner

Search our weather history database for the weather conditions in past years. The results will help you decide how hot, cold, wet, or windy it might be!

Date:

Astronomy

Nov. 18, 2012 Rise Set
Actual Time 7:16 AM CST 5:07 PM CST
Civil Twilight 6:47 AM CST 5:36 PM CST
Nautical Twilight 6:14 AM CST 6:09 PM CST
Astronomical Twilight 5:42 AM CST 6:42 PM CST
Moon 11:44 AM CST (11/18) 10:28 PM CST (11/18)
Length of Visible Light 10h 49m
Length of Day
9h 50m
Waxing Crescent, 30% of the Moon is Illuminated
Nov 18
Waxing Crescent
Nov 20
First Quarter
Nov 28
Full
Dec 6
Last Quarter
Dec 13
New

Hourly Weather History & Observations

Time (CST) Temp. Windchill Dew Point Humidity Pressure Visibility Wind Dir Wind Speed Gust Speed Precip Events Conditions
12:15 AM 46.0 °F 41.4 °F 24.3 °F 42% 30.16 in 10.0 mi SSE 9.2 mph - N/A   Clear
12:35 AM 45.7 °F 40.6 °F 24.3 °F 43% 30.15 in 10.0 mi SSE 10.4 mph - N/A   Clear
12:55 AM 46.4 °F 41.5 °F 23.0 °F 40% 30.15 in 10.0 mi South 10.4 mph - N/A   Clear
1:15 AM 46.2 °F 40.8 °F 23.0 °F 40% 30.15 in 10.0 mi South 11.5 mph 17.3 mph N/A   Clear
1:35 AM 46.4 °F 41.1 °F 23.0 °F 40% 30.14 in 10.0 mi South 11.5 mph - N/A   Clear
1:55 AM 46.9 °F - 23.0 °F 39% 30.14 in 10.0 mi South 11.5 mph - N/A   Clear
2:15 AM 46.6 °F - 23.2 °F 40% 30.14 in 10.0 mi South 10.4 mph - N/A   Clear
2:35 AM 45.7 °F 40.6 °F 23.9 °F 42% 30.14 in 10.0 mi SSE 10.4 mph - N/A   Clear
2:55 AM 45.7 °F 40.6 °F 24.3 °F 43% 30.14 in 10.0 mi South 10.4 mph - N/A   Clear
3:15 AM 45.7 °F 40.6 °F 24.4 °F 43% 30.14 in 10.0 mi South 10.4 mph - N/A   Clear
3:35 AM 45.0 °F 40.1 °F 24.8 °F 45% 30.14 in 10.0 mi South 9.2 mph - N/A   Clear
3:55 AM 46.4 °F 41.5 °F 24.8 °F 43% 30.13 in 10.0 mi South 10.4 mph 16.1 mph N/A   Clear
4:15 AM 46.6 °F - 24.8 °F 43% 30.13 in 10.0 mi South 11.5 mph - N/A   Clear
4:35 AM 46.4 °F 41.1 °F 24.8 °F 43% 30.12 in 10.0 mi South 11.5 mph - N/A   Clear
4:55 AM 45.9 °F 40.8 °F 25.3 °F 45% 30.13 in 10.0 mi SSE 10.4 mph - N/A   Clear
5:15 AM 45.7 °F 40.6 °F 25.3 °F 45% 30.12 in 10.0 mi SSE 10.4 mph - N/A   Clear
5:35 AM 45.5 °F 40.3 °F 25.7 °F 46% 30.13 in 10.0 mi South 10.4 mph - N/A   Clear
5:55 AM 43.9 °F 38.3 °F 25.9 °F 49% 30.12 in 10.0 mi SSE 10.4 mph - N/A   Clear
6:15 AM 43.2 °F 37.9 °F 26.1 °F 51% 30.12 in 10.0 mi SSE 9.2 mph - N/A   Clear
6:35 AM 42.8 °F 37.5 °F 26.2 °F 52% 30.13 in 10.0 mi SSE 9.2 mph - N/A   Clear
6:55 AM 42.8 °F 36.6 °F 26.2 °F 52% 30.12 in 10.0 mi SSE 11.5 mph - N/A   Clear
7:15 AM 43.3 °F 37.2 °F 26.2 °F 51% 30.12 in 10.0 mi SSE 11.5 mph - N/A   Clear
7:35 AM 43.2 °F 37.4 °F 26.6 °F 52% 30.13 in 10.0 mi SSE 10.4 mph - N/A   Clear
7:55 AM 43.7 °F 38.6 °F 27.3 °F 53% 30.12 in 10.0 mi SSE 9.2 mph - N/A   Clear
8:15 AM 44.6 °F 39.2 °F 27.3 °F 51% 30.12 in 10.0 mi South 10.4 mph - N/A   Clear
8:35 AM 45.7 °F 39.8 °F 27.5 °F 49% 30.12 in 10.0 mi South 12.7 mph - N/A   Clear
8:55 AM 48.2 °F - 27.0 °F 44% 30.13 in 10.0 mi South 12.7 mph 20.7 mph N/A   Clear
9:15 AM 49.5 °F - 26.6 °F 41% 30.12 in 10.0 mi South 15.0 mph 19.6 mph N/A   Clear
9:35 AM 53.2 °F - 26.2 °F 35% 30.12 in 10.0 mi South 17.3 mph 23.0 mph N/A   Clear
9:55 AM 54.0 °F - 25.9 °F 34% 30.12 in 10.0 mi South 13.8 mph 25.3 mph N/A   Clear
10:15 AM 53.8 °F - 25.9 °F 34% 30.12 in 10.0 mi South 12.7 mph 20.7 mph N/A   Clear
10:35 AM 55.4 °F - 26.1 °F 32% 30.12 in 10.0 mi South 13.8 mph 23.0 mph N/A   Clear
10:55 AM 56.1 °F - 25.9 °F 31% 30.12 in 10.0 mi South 17.3 mph 23.0 mph N/A   Clear
11:15 AM 56.8 °F - 26.4 °F 31% 30.11 in 10.0 mi South 13.8 mph 19.6 mph N/A   Clear
11:35 AM 57.2 °F - 26.2 °F 31% 30.09 in 10.0 mi South 11.5 mph 20.7 mph N/A   Clear
11:55 AM 58.8 °F - 26.8 °F 29% 30.08 in 10.0 mi South 13.8 mph - N/A   Clear
12:15 PM 59.0 °F - 27.9 °F 31% 30.08 in 10.0 mi South 12.7 mph - N/A   Clear
12:35 PM 61.9 °F - 28.2 °F 28% 30.07 in 10.0 mi South 17.3 mph - N/A   Clear
12:55 PM 61.7 °F - 28.9 °F 29% 30.06 in 10.0 mi South 13.8 mph 20.7 mph N/A   Clear
1:15 PM 62.6 °F - 29.5 °F 29% 30.05 in 10.0 mi South 18.4 mph - N/A   Clear
1:35 PM 63.0 °F - 30.2 °F 29% 30.04 in 10.0 mi South 15.0 mph 23.0 mph N/A   Clear
1:55 PM 63.9 °F - 31.5 °F 30% 30.04 in 10.0 mi South 16.1 mph - N/A   Clear
2:15 PM 62.8 °F - 31.6 °F 31% 30.03 in 10.0 mi South 17.3 mph 25.3 mph N/A   Clear
2:35 PM 63.3 °F - 32.2 °F 31% 30.02 in 10.0 mi South 18.4 mph 23.0 mph N/A   Clear
2:55 PM 64.4 °F - 32.9 °F 31% 30.01 in 10.0 mi South 12.7 mph - N/A   Clear
3:15 PM 63.5 °F - 33.3 °F 32% 30.02 in 10.0 mi South 15.0 mph - N/A   Clear
3:35 PM 63.5 °F - 32.9 °F 32% 30.02 in 10.0 mi SSE 12.7 mph - N/A   Mostly Cloudy
3:55 PM 62.8 °F - 32.2 °F 32% 30.02 in 10.0 mi SE 10.4 mph 18.4 mph N/A   Overcast
4:15 PM 61.9 °F - 32.0 °F 33% 30.03 in 10.0 mi SSE 11.5 mph 19.6 mph N/A   Scattered Clouds
4:35 PM 61.2 °F - 32.2 °F 34% 30.03 in 10.0 mi SSE 10.4 mph - N/A   Mostly Cloudy
4:55 PM 61.3 °F - 31.3 °F 32% 30.03 in 10.0 mi SSE 11.5 mph 21.9 mph N/A   Mostly Cloudy
5:15 PM 60.1 °F - 31.8 °F 34% 30.04 in 10.0 mi SSE 11.5 mph - N/A   Scattered Clouds
5:35 PM 59.9 °F - 31.6 °F 34% 30.04 in 10.0 mi SSE 15.0 mph - N/A   Scattered Clouds
5:55 PM 59.2 °F - 31.8 °F 36% 30.05 in 10.0 mi SSE 11.5 mph - N/A   Mostly Cloudy
6:15 PM 58.5 °F - 31.8 °F 37% 30.05 in 10.0 mi SSE 11.5 mph - N/A   Mostly Cloudy
6:35 PM 58.1 °F - 31.8 °F 37% 30.05 in 10.0 mi SSE 12.7 mph - N/A   Mostly Cloudy
6:55 PM 57.4 °F - 32.0 °F 38% 30.06 in 10.0 mi SSE 11.5 mph - N/A   Scattered Clouds
7:15 PM 56.8 °F - 32.0 °F 39% 30.06 in 10.0 mi SSE 11.5 mph 19.6 mph N/A   Clear
7:35 PM 56.7 °F - 31.6 °F 39% 30.05 in 10.0 mi SSE 15.0 mph 19.6 mph N/A   Clear
7:55 PM 56.3 °F - 31.8 °F 39% 30.05 in 10.0 mi SSE 12.7 mph 18.4 mph N/A   Clear
8:15 PM 56.3 °F - 31.8 °F 39% 30.05 in 10.0 mi SSE 16.1 mph 23.0 mph N/A   Clear
8:35 PM 55.9 °F - 31.8 °F 40% 30.05 in 10.0 mi SSE 15.0 mph 19.6 mph N/A   Clear
8:55 PM 55.6 °F - 32.0 °F 41% 30.04 in 10.0 mi SSE 16.1 mph - N/A   Clear
9:15 PM 55.2 °F - 32.0 °F 41% 30.04 in 10.0 mi SSE 12.7 mph 20.7 mph N/A   Clear
9:35 PM 54.5 °F - 32.0 °F 42% 30.04 in 10.0 mi SSE 15.0 mph - N/A   Clear
9:55 PM 53.8 °F - 32.0 °F 44% 30.04 in 10.0 mi SSE 16.1 mph - N/A   Clear
10:15 PM 53.6 °F - 32.0 °F 44% 30.04 in 10.0 mi SSE 12.7 mph 19.6 mph N/A   Clear
10:35 PM 52.7 °F - 32.0 °F 45% 30.04 in 10.0 mi SSE 12.7 mph - N/A   Clear
10:55 PM 53.6 °F - 32.0 °F 44% 30.03 in 10.0 mi SSE 12.7 mph 18.4 mph N/A   Clear
11:15 PM 52.7 °F - 32.0 °F 45% 30.03 in 10.0 mi SSE 15.0 mph 21.9 mph N/A   Clear
11:35 PM 52.0 °F - 32.2 °F 47% 30.03 in 10.0 mi SSE 11.5 mph 18.4 mph N/A   Clear
11:55 PM 51.4 °F - 32.2 °F 48% 30.03 in 10.0 mi SSE 11.5 mph - N/A   Clear